Regional Weather Roundup
Issued by NWS

Home | Current Version | Previous Version | Graphics & Text | Print | Product List | Glossary Off
Versions: 1 2 3 4 5 6 7 8 9 10 11 12 13 14 15 16 17 18 19 20 21 22 23 24 25 26 27 28 29 30 31 32 33 34 35 36 37 38 39 40 41 42 43 44 45 46 47 48 49 50

252
ASUS43 KMKX 262200
RWRWI

WISCONSIN REGIONAL WEATHER ROUNDUP
NATIONAL WEATHER SERVICE MILWAUKEE/SULLIVAN WI
500 PM CDT FRI AUG 26 2016

NOTE: "FAIR" INDICATES FEW OR NO CLOUDS BELOW 12,000 FEET WITH NO
SIGNIFICANT WEATHER AND/OR OBSTRUCTIONS TO VISIBILITY.

WIZ001-002-006>008-014>016-023>028-262300-
NORTHWEST WISCONSIN

CITY           SKY/WX    TMP DP  RH WIND       PRES   REMARKS
SUPERIOR ARPT  PTSUNNY   74  53  46 SW9       30.11S
ASHLAND        CLOUDY    69  53  56 E8        30.15S
HAYWARD        CLOUDY    68  50  52 S5        30.16S
SIREN          CLOUDY    70  50  48 S6        30.15S
CUMBERLAND     MOSUNNY   68  50  52 S3        30.16S
RICE LAKE      PTSUNNY   69  50  49 CALM      30.17S
CHETEK         NOT AVBL
LADYSMITH      MOSUNNY   69  51  52 W3        30.17S
EAU CLAIRE     NOT AVBL
MENOMONIE      CLOUDY    71  52  50 CALM      30.16S
NEW RICHMOND   MOSUNNY   71  51  49 S3        30.16S
OSCEOLA        MOSUNNY   71  54  54 SW3       30.18S
$$

WIZ003>005-009-010-017-018-262300-
NORTH CENTRAL WISCONSIN

CITY           SKY/WX    TMP DP  RH WIND       PRES   REMARKS
MANITOWISH WTR NOT AVBL
ARBOR VITAE    CLOUDY    67  50  54 CALM      30.17R
WOODRUFF       CLOUDY    67  50  54 CALM      30.17R
RHINELANDER    PTSUNNY   70  50  49 VRB5      30.17R
EAGLE RIVER    MOSUNNY   66  45  46 NW7       30.16R
LAND O LAKES   PTSUNNY   67  47  47 W6        30.17R
PHILLIPS       CLOUDY    67  53  59 CALM      30.16S
TOMAHAWK       MOSUNNY   66  51  59 W3        30.17R
MEDFORD        MOSUNNY   68  51  54 NE3       30.16F
MERRILL        MOSUNNY   69  53  56 CALM      30.17R
$$

WIZ029-030-035-036-043>047-262300-
CENTRAL WISCONSIN

CITY           SKY/WX    TMP DP  RH WIND       PRES   REMARKS
WAUSAU         CLOUDY    70  51  51 W7        30.14S
MOSINEE        MOSUNNY   70  54  56 W3        30.17R
MARSHFIELD     PTSUNNY   70  52  52 NW5       30.16S
STEVENS POINT  CLOUDY    68  52  55 W5        30.16S
WAUPACA        CLOUDY    73  54  52 W3        30.16R
WAUTOMA        CLOUDY    72  58  61 S5        30.15F
WISC RAPIDS    CLOUDY    70  54  56 NW3       30.17F
CAMP DOUGLAS   NOT AVBL
$$

WIZ011>013-019>022-031-037>040-048>050-262300-
NORTHEAST WISCONSIN

CITY           SKY/WX    TMP DP  RH WIND       PRES   REMARKS
ANTIGO         MOSUNNY   70  53  54 NW6       30.16S
SHAWANO        MOSUNNY   74  53  47 CALM      30.14S
OCONTO         NOT AVBL
STURGEON BAY   PTSUNNY   72  56  57 SW6       30.13F
GREEN BAY      MOSUNNY   72  58  61 SW5       30.14S
MANITOWOC      NOT AVBL
APPLETON       PTSUNNY   72  52  49 VRB6      30.14S
CLINTONVILLE   MOSUNNY   72  50  46 W3        30.14S
OSHKOSH        PTSUNNY   71  55  56 CALM      30.14S
$$

WIZ032>034-041-042-053>061-262300-
SOUTHWEST WISCONSIN

CITY           SKY/WX    TMP DP  RH WIND       PRES   REMARKS
LA CROSSE      CLOUDY    73  58  59 W5        30.14S
SPARTA         CLOUDY    71  56  59 CALM      30.16S
VIROQUA        CLOUDY    69  57  65 CALM      30.17S
BOSCOBEL       LGT RAIN  71  61  70 CALM      30.15F
PRAIRIE DU CHI LGT RAIN  68  59  72 CALM      30.14F
PLATTEVILLE    CLOUDY    72  62  71 N5        30.14S
$$

WIZ056-057-062-063-064-067-068-262300-
SOUTH CENTRAL WISCONSIN

CITY           SKY/WX    TMP DP  RH WIND       PRES   REMARKS
REEDSBURG      NOT AVBL
BARABOO/DELLS  CLOUDY    69  57  65 NE5       30.14F
LONE ROCK      NOT AVBL
MINERAL POINT  CLOUDY    72  59  64 N6        30.16R
MADISON        PTSUNNY   73  58  59 NE5       30.13S
MIDDLETON      MOSUNNY   73  58  58 CALM      30.14S
WATERTOWN      PTSUNNY   73  60  63 W3        30.14R
MONROE         CLOUDY    73  59  60 N6        30.13S
JANESVILLE     PTSUNNY   75  57  53 NE8       30.12S
$$

WIZ051-052-058>065-066-070>072-262300-
SOUTHEAST WISCONSIN

CITY           SKY/WX    TMP DP  RH WIND       PRES   REMARKS
MILWAUKEE      PTSUNNY   72  57  59 E9        30.13S
WAUKESHA       SUNNY     72  57  60 W5        30.15S
MILWAUKEE/TIMM SUNNY     73  52  46 E7        30.14S
RACINE         MOSUNNY   72  59  63 E8        30.15R
BURLINGTON     PTSUNNY   76  55  49 CALM      30.13R
KENOSHA        PTSUNNY   73  61  65 E9        30.14R
FOND DU LAC    CLOUDY    71  58  63 N6        30.14F
SHEBOYGAN      CLOUDY    73  54  51 NW3       30.14S
WEST BEND      MOSUNNY   73  55  53 N5        30.14S
JUNEAU         MOSUNNY   71  57  61 CALM      30.16R
$$

LSZ147-162-262300-
LAKE SUPERIOR

STATION/POSITION TIME  TEMP    WIND        PRES    WAVE
                       AIR SEA DIR/SP/G            HT/PER
                 (UTC) (F)     (DEG/KT/KT) (MB)    (FT/S)
W MID LAKE BUOY  2050   65 69  140/  2/  4 1020.4R   1/ 4
DEVILS ISLAND    2100   67     150/  4/  7 1020.7R
PORT WING        2140   73      10/  2/  2 1020.3S
SAXON HARBOR     2100   68      50/  5/  5 1021.0
$$

LMZ867-665-643>646-262300-
LAKE MICHIGAN

STATION/POSITION TIME  TEMP    WIND        PRES    WAVE
                       AIR SEA DIR/SP/G            HT/PER
                 (UTC) (F)     (DEG/KT/KT) (MB)    (FT/S)
CHAMBERS ISLAND  2100   72     160/  5/  9 1019.6F
S GREEN BAY BUOY 2030   71 73  200/  8/ 10 1019.5F
N MID LAKE BUOY  2050   68 71  210/  8/ 12 1019.5R   1
NORTHPORT PIER   2100   70     150/  8/ 11 1019.6
SISTER BAY       2137   74     290/  8/  8   N/A
KEWAUNEE LAKESHO 2100   62     180/  7/  7 1020.3S
SHEBOYGAN LAKESH 2100   65     170/  6/  7 1020.1F
PORT WASHINGTON  2140   69     150/  2/  3 1021.0F
ATWATER BUOY     2100   67     110/  4/  4   N/A
MILWAUKEE LAKESH 2110   69     100/  6/  6   N/A
S MID LAKE BUOY  2050   71 76   20/  6/  8 1020.2F   1
KENOSHA   LAKESH 2100   75     110/  6/  8 1019.6F
$$

TC  - TEMPERATURE IN CELSIUS
VSB - VISIBILITY IN STATUTE MILES
WCI - WIND CHILL INDEX
HX  - HEAT INDEX





USA.gov is the U.S. government's official web portal to all federal, state and local government web resources and services.